KB9VKQ-13 Weather Reports


time (UTC)temp
C
wind
direction
speed
KPH
gust
KPH
rain 1hr
cm
rain 24hr
cm
rain mn
cm
humidity
%
barometer
mb
20260905223933 35 118 3.2 9.7 0.00 0.00 0.00
20260905222903 36 118 1.6 6.4 0.00 0.00 0.00
20260905221833 35 332 1.6 8.0 0.00 0.00 0.00
20260905220803 35 0 3.2 8.0 0.00 0.00 0.00
20260905215733 35 349 1.6 12.9 0.00 0.00 0.00
20260905214703 36 356 4.8 11.3 0.00 0.00 0.00
20260905213703 37 44 3.2 12.9 0.00 0.00 0.00
20260905212703 37 353 0.0 9.7 0.00 0.00 0.00
20260905211633 37 346 3.2 14.5 0.00 0.00 0.00
20260905210603 37 329 4.8 11.3 0.00 0.00 0.00
20260905205533 36 330 8.0 14.5 0.00 0.00 0.00
20260905204533 36 319 11.3 20.9 0.00 0.00 0.00
20260905203503 36 333 8.0 20.9 0.00 0.00 0.00
20260905202433 37 308 11.3 16.1 0.00 0.00 0.00
20260905201433 37 340 8.0 12.9 0.00 0.00 0.00
20260905200403 36 322 4.8 16.1 0.00 0.00 0.00
20260905195403 37 48 4.8 17.7 0.00 0.00 0.00
20260905194333 38 7 9.7 16.1 0.00 0.00 0.00
20260905193333 37 321 12.9 19.3 0.00 0.00 0.00
20260905192306 36 14 8.0 19.3 0.00 0.00 0.00
20260905191303 37 326 8.0 14.5 0.00 0.00 0.00
20260905190233 37 335 8.0 16.1 0.00 0.00 0.00
20260905185233 36 10 11.3 19.3 0.00 0.00 0.00
20260905184203 36 308 9.7 14.5 0.00 0.00 0.00
20260905183133 36 298 1.6 12.9 0.00 0.00 0.00
20260905182133 36 298 8.0 14.5 0.00 0.00 0.00
20260905181103 36 353 8.0 14.5 0.00 0.00 0.00
20260905180033 36 301 8.0 12.9 0.00 0.00 0.00
20260905175003 36 315 6.4 12.9 0.00 0.00 0.00
20260905173933 36 297 9.7 14.5 0.00 0.00 0.00
20260905172903 36 259 4.8 16.1 0.00 0.00 0.00
20260905171903 36 304 3.2 12.9 0.00 0.00 0.00
20260905170903 36 333 1.6 11.3 0.00 0.00 0.00
20260905165833 35 326 4.8 11.3 0.00 0.00 0.00
20260905164833 36 329 0.0 9.7 0.00 0.00 0.00
20260905163833 35 333 3.2 11.3 0.00 0.00 0.00
20260905162803 34 323 4.8 11.3 0.00 0.00 0.00
20260905161733 34 321 1.6 9.7 0.00 0.00 0.00
20260905160703 34 295 8.0 12.9 0.00 0.00 0.00
20260905155633 33 323 0.0 9.7 0.00 0.00 0.00
20260905154603 34 295 4.8 12.9 0.00 0.00 0.00
20260905153533 33 277 3.2 11.3 0.00 0.00 0.00
20260905152503 33 300 1.6 11.3 0.00 0.00 0.00
20260905151433 32 300 6.4 12.9 0.00 0.00 0.00
20260905150433 32 302 6.4 11.3 0.00 0.00 0.00
20260905145403 32 322 9.7 14.5 0.00 0.00 0.00
20260905144403 32 300 8.0 12.9 0.00 0.00 0.00
20260905143333 31 309 4.8 11.3 0.00 0.00 0.00
20260905143135 31 330 4.8 8.0 0.00 0.00 0.00
20260905142717 31 330 4.8 8.0 0.00 0.00 0.00
20260905142333 31 330 4.8 8.0 0.00 0.00 0.00
20260905141631 31 312 6.4 9.7 0.00 0.00 0.00
20260905141333 31 312 6.4 9.7 0.00 0.00 0.00
20260905140303 31 283 3.2 6.4 0.00 0.00 0.00
20260905135306 30 283 4.8 6.4 0.00 0.00 0.00
20260905134233 30 245 0.0 0.0 0.00 0.00 0.00
20260905133233 28 245 0.0 1.6 0.00 0.00 0.00
20260905132203 27 262 0.0 0.0 0.00 0.00 0.00
20260905131133 26 262 0.0 0.0 0.00 0.00 0.00
20260905125401 25 262 0.0 0.0 0.00 0.00 0.00
20260905125033 25 262 0.0 0.0 0.00 0.00 0.00
20260905124033 25 262 0.0 0.0 0.00 0.00 0.00
20260905123033 25 262 0.0 0.0 0.00 0.00 0.00
20260905122003 24 262 0.0 0.0 0.00 0.00 0.00
20260905121003 23 262 0.0 0.0 0.00 0.00 0.00
20260905120449 23 262 0.0 0.0 0.00 0.00 0.00
20260905120003 23 262 0.0 0.0 0.00 0.00 0.00
20260905115310 23 262 0.0 0.0 0.00 0.00 0.00
20260905114933 23 262 0.0 0.0 0.00 0.00 0.00
20260905114235 23 262 0.0 0.0 0.00 0.00 0.00
20260905113933 23 262 0.0 0.0 0.00 0.00 0.00
20260905112903 23 262 0.0 0.0 0.00 0.00 0.00
20260905111902 23 262 0.0 0.0 0.00 0.00 0.00
20260905110832 23 262 0.0 0.0 0.00 0.00 0.00
20260905110340 23 262 0.0 0.0 0.00 0.00 0.00
20260905105802 23 262 0.0 0.0 0.00 0.00 0.00
20260905104802 24 262 0.0 0.0 0.00 0.00 0.00
20260905103802 24 262 0.0 0.0 0.00 0.00 0.00
20260905102732 24 262 0.0 0.0 0.00 0.00 0.00
20260905101702 25 262 0.0 1.6 0.00 0.00 0.00
20260905100632 25 267 0.0 1.6 0.00 0.00 0.00
20260905100144 25 240 0.0 0.0 0.00 0.00 0.00
20260905095904 25 274 1.6 1.6 0.00 0.00 0.00
20260905095602 25 274 1.6 1.6 0.00 0.00 0.00
20260905094924 25 240 0.0 0.0 0.00 0.00 0.00
20260905094532 25 240 0.0 0.0 0.00 0.00 0.00
20260905093502 25 240 0.0 1.6 0.00 0.00 0.00
20260905092826 25 231 0.0 0.0 0.00 0.00 0.00
20260905092432 25 231 0.0 0.0 0.00 0.00 0.00
20260905091402 25 231 0.0 3.2 0.00 0.00 0.00
20260905090402 25 271 1.6 3.2 0.00 0.00 0.00
20260905090334 26 288 1.6 3.2 0.00 0.00 0.00
20260905085402 26 288 1.6 3.2 0.00 0.00 0.00
20260905084332 26 309 1.6 3.2 0.00 0.00 0.00
20260905083302 26 273 0.0 8.0 0.00 0.00 0.00
20260905082232 26 300 3.2 4.8 0.00 0.00 0.00
20260905081202 26 240 0.0 3.2 0.00 0.00 0.00
20260905080132 26 270 1.6 4.8 0.00 0.00 0.00
20260905075102 27 287 4.8 6.4 0.00 0.00 0.00
20260905074032 27 302 4.8 6.4 0.00 0.00 0.00
20260905073032 27 291 4.8 8.0 0.00 0.00 0.00
20260905072002 27 291 4.8 4.8 0.00 0.00 0.00
20260905071002 26 255 0.0 4.8 0.00 0.00 0.00
20260905070002 27 291 4.8 6.4 0.00 0.00 0.00
20260905064932 27 277 3.2 6.4 0.00 0.00 0.00
20260905063932 27 309 4.8 6.4 0.00 0.00 0.00
20260905062902 27 280 4.8 8.0 0.00 0.00 0.00
20260905061832 27 290 4.8 8.0 0.00 0.00 0.00
20260905060802 27 297 4.8 9.7 0.00 0.00 0.00
20260905055802 27 316 1.6 6.4 0.00 0.00 0.00
20260905054802 27 245 1.6 6.4 0.00 0.00 0.00
20260905053732 27 276 4.8 6.4 0.00 0.00 0.00
20260905052732 27 271 1.6 3.2 0.00 0.00 0.00
20260905051732 26 70 0.0 0.0 0.00 0.00 0.00
20260905050732 26 70 0.0 0.0 0.00 0.00 0.00
20260905045702 26 70 0.0 0.0 0.00 0.00 0.00
20260905044632 26 70 0.0 0.0 0.00 0.00 0.00
20260905043602 26 70 0.0 3.2 0.00 0.00 0.00
20260905042532 27 256 0.0 0.0 0.00 0.00 0.00
20260905041532 27 256 0.0 0.0 0.00 0.00 0.00
20260905040502 27 256 0.0 0.0 0.00 0.00 0.00
20260905035502 28 256 0.0 0.0 0.00 0.00 0.00
20260905034432 28 256 0.0 3.2 0.00 0.00 0.00
20260905033432 28 255 0.0 3.2 0.00 0.00 0.00
20260905032432 29 308 0.0 3.2 0.00 0.00 0.00
20260905031432 29 312 0.0 1.6 0.00 0.00 0.00
20260905030402 29 295 0.0 6.4 0.00 0.00 0.00
20260905025402 30 287 3.2 4.8 0.00 0.00 0.00
20260905024332 28 219 0.0 0.0 0.00 0.00 0.00
20260905023332 28 219 0.0 0.0 0.00 0.00 0.00
20260905022305 28 219 0.0 0.0 0.00 0.00 0.00
20260905021302 28 219 0.0 0.0 0.00 0.00 0.00
20260905020232 28 219 0.0 0.0 0.00 0.00 0.00
20260905015232 29 219 0.0 3.2 0.00 0.00 0.00
20260905014202 29 195 0.0 0.0 0.00 0.00 0.00
20260905013132 30 195 0.0 0.0 0.00 0.00 0.00
20260905012102 30 195 0.0 0.0 0.00 0.00 0.00
20260905011032 30 195 0.0 0.0 0.00 0.00 0.00
20260905010032 31 195 0.0 0.0 0.00 0.00 0.00
20260905005002 31 195 0.0 0.0 0.00 0.00 0.00
20260905003932 32 195 0.0 0.0 0.00 0.00 0.00
20260905002932 32 195 0.0 0.0 0.00 0.00 0.00
20260905001932 34 195 0.0 0.0 0.00 0.00 0.00
20260905000902 37 195 0.0 0.0 0.00 0.00 0.00
20260904235902 38 195 0.0 0.0 0.00 0.00 0.00
20260904234832 38 195 0.0 6.4 0.00 0.00 0.00
20260904233802 37 252 3.2 6.4 0.00 0.00 0.00
20260904232732 37 294 4.8 6.4 0.00 0.00 0.00
20260904231732 37 305 4.8 8.0 0.00 0.00 0.00
20260904230732 37 274 4.8 11.3 0.00 0.00 0.00
20260904225702 37 280 6.4 11.3 0.00 0.00 0.00